sat.trackr.live / text

‹ back to catalog

STARLINK-33844

NORAD 63768 · 2025-089T

PAYLOAD ACTIVE UNKNOWN

§ Identity

Operator
Country
US
Launch date
2025-04-29
Launch site
AFETR
Launch vehicle
Mass (kg)
RCS (m²)

Purposes: comms

External: N2YO · Heavens-Above · Gunter

§ Orbital elements

Epoch: 2026-09-20T00:55:53.382720Z

Period
94.27 min
Inclination
43.0004°
Eccentricity
0.0002100
Mean motion
15.27593539 rev/d
Perigee alt
481.6 km
Apogee alt
484.4 km
Semi-major
6,861.1 km
B*
4.0477e-4
RAAN
27.4007°
Arg perigee
275.0411°
Mean anomaly
85.0201°
Rev number
7,868

§ Raw data

STARLINK-338441 63768U 25089T   26263.03881230  .00010897  00000+0  40477-3 0  99972 63768  43.0004  27.4007 0002100 275.0411  85.0201 15.27593539 78680

JSON: /api/v1/satellites/63768 · /tle

For live sub-satellite position, see the globe view (requires WebGL).

§ Visibility from observer

Set your observer location to see the next 7 days of passes ≥ 10°. The values pass through the URL so the page stays shareable.

No JS? Fill the form by hand. The geolocation button needs JavaScript.